Chico, CA

10:03 AM PDT on September 29, 2016 (GMT -0700)
Chico Municipal

Weather History for KCIC - January, 2014

Change the Weather History Date:

Tuesday, January 28, 2014

  Actual Average (KOVE) Record (KOVE)
Temperature  
Mean Temperature 57 °F -  
Max Temperature 64 °F 57 °F 69 °F (2015)
Min Temperature 50 °F 36 °F 25 °F (1975)
Degree Days  
Heating Degree Days 8    
Growing Degree Days 7 (Base 50)    
Moisture  
Dew Point 34 °F    
Average Humidity 45    
Maximum Humidity 66    
Minimum Humidity 30    
Precipitation  
Precipitation 0.00 in - - ()
Sea Level Pressure  
Sea Level Pressure 30.19 in    
Wind  
Wind Speed 1 mph (WNW)    
Max Wind Speed 12 mph    
Max Gust Speed -    
Visibility 10 miles    
Events      
Averages and records for this station are not official NWS values.
T = Trace of Precipitation, MM = Missing Value Source: NWS Daily Summary

Daily Weather History Graph

Daily Weather History Graph

Search for Another Location

Airport or City:

Trip Planner

Search our weather history database for the weather conditions in past years. The results will help you decide how hot, cold, wet, or windy it might be!

Date:

Astronomy

Jan. 28, 2014 Rise Set
Actual Time 7:18 AM PST 5:22 PM PST
Civil Twilight 6:50 AM PST 5:51 PM PST
Nautical Twilight 6:17 AM PST 6:23 PM PST
Astronomical Twilight 5:45 AM PST 6:55 PM PST
Moon 5:05 AM PST (1/28) 3:18 PM PST (1/28)
Length of Visible Light 11h 01m
Length of Day
10h 03m
Waning Crescent, 6% of the Moon is Illuminated
Jan 28
Waning Crescent
Jan 30
New
Feb 6
First Quarter
Feb 14
Full
Feb 22
Last Quarter

Hourly Weather History & Observations

Time (PST) Temp. Dew Point Humidity Pressure Visibility Wind Dir Wind Speed Gust Speed Precip Events Conditions
12:15 AM 53.6 °F 33.8 °F 47% 30.18 in 10.0 mi Calm Calm - N/A   Mostly Cloudy
12:35 AM 53.6 °F 33.8 °F 47% 30.17 in 10.0 mi Calm Calm - N/A   Scattered Clouds
12:55 AM 53.6 °F 33.8 °F 47% 30.18 in 10.0 mi Calm Calm - N/A   Mostly Cloudy
1:15 AM 51.8 °F 35.6 °F 54% 30.19 in 10.0 mi Calm Calm - N/A   Overcast
1:35 AM 51.8 °F 35.6 °F 54% 30.19 in 10.0 mi Calm Calm - N/A   Overcast
1:55 AM 53.6 °F 33.8 °F 47% 30.19 in 10.0 mi Calm Calm - N/A   Overcast
2:15 AM 53.6 °F 35.6 °F 51% 30.19 in 10.0 mi Calm Calm - N/A   Mostly Cloudy
2:35 AM 51.8 °F 35.6 °F 54% 30.19 in 10.0 mi Calm Calm - N/A   Overcast
2:55 AM 51.8 °F 35.6 °F 54% 30.19 in 10.0 mi Calm Calm - N/A   Overcast
3:15 AM 53.6 °F 35.6 °F 51% 30.20 in 10.0 mi Calm Calm - N/A   Overcast
3:35 AM 53.6 °F 35.6 °F 51% 30.19 in 10.0 mi Calm Calm - N/A   Overcast
3:55 AM 53.6 °F 35.6 °F 51% 30.20 in 10.0 mi Calm Calm - N/A   Overcast
4:15 AM 53.6 °F 35.6 °F 51% 30.19 in 10.0 mi Calm Calm - N/A   Overcast
4:35 AM 53.6 °F 33.8 °F 47% 30.18 in 10.0 mi Calm Calm - N/A   Overcast
4:55 AM 51.8 °F 35.6 °F 54% 30.19 in 10.0 mi Calm Calm - N/A   Overcast
5:15 AM 53.6 °F 35.6 °F 51% 30.20 in 10.0 mi Calm Calm - N/A   Overcast
5:35 AM 50.0 °F 39.2 °F 66% 30.19 in 10.0 mi Calm Calm - N/A   Overcast
5:55 AM 51.8 °F 37.4 °F 58% 30.21 in 10.0 mi Calm Calm - N/A   Overcast
6:15 AM 53.6 °F 35.6 °F 51% 30.21 in 10.0 mi Calm Calm - N/A   Overcast
6:35 AM 53.6 °F 35.6 °F 51% 30.22 in 10.0 mi Calm Calm - N/A   Overcast
6:50 AM 50.0 °F 37.4 °F 62% 30.22 in 10.0 mi NW 11.5 mph - N/A   Overcast
7:50 AM 51.8 °F 35.6 °F 54% 30.22 in 25.0 mi NW 5.8 mph - N/A   Overcast
8:55 AM 55.4 °F 35.6 °F 47% 30.25 in 10.0 mi NNW 4.6 mph - N/A   Overcast
9:50 AM 57.2 °F 35.6 °F 44% 30.25 in 10.0 mi WNW 4.6 mph - N/A   Overcast
10:59 AM 60.8 °F 35.6 °F 39% 30.26 in 10.0 mi Calm Calm - N/A   Mostly Cloudy
12:55 PM 62.6 °F 32.0 °F 32% 30.19 in 10.0 mi Calm Calm - N/A   Mostly Cloudy
1:50 PM 64.4 °F 32.0 °F 30% 30.18 in 10.0 mi Calm Calm - N/A   Mostly Cloudy
2:50 PM 64.4 °F 32.0 °F 30% 30.18 in 10.0 mi WSW 5.8 mph - N/A   Overcast
3:59 PM 64.4 °F 32.0 °F 30% 30.18 in 10.0 mi SE 4.6 mph - N/A   Mostly Cloudy
4:47 PM 64.4 °F 32.0 °F 30% 30.18 in 10.0 mi Calm Calm - N/A   Overcast
5:47 PM 62.6 °F 32.0 °F 32% 30.18 in 10.0 mi Calm Calm - N/A   Overcast
6:47 PM 60.8 °F 32.0 °F 34% 30.18 in 10.0 mi Calm Calm - N/A   Overcast
6:55 PM 60.8 °F 32.0 °F 34% 30.18 in 10.0 mi Calm Calm - N/A   Mostly Cloudy
7:15 PM 59.0 °F 32.0 °F 36% 30.19 in 10.0 mi Calm Calm - N/A   Overcast
7:35 PM 59.0 °F 32.0 °F 36% 30.18 in 10.0 mi Calm Calm - N/A   Scattered Clouds
7:55 PM 59.0 °F 32.0 °F 36% 30.18 in 10.0 mi Calm Calm - N/A   Mostly Cloudy
8:15 PM 57.2 °F 33.8 °F 41% 30.18 in 10.0 mi Calm Calm - N/A   Overcast
8:35 PM 57.2 °F 33.8 °F 41% 30.19 in 10.0 mi Calm Calm - N/A   Mostly Cloudy
8:55 PM 57.2 °F 33.8 °F 41% 30.18 in 10.0 mi Calm Calm - N/A   Mostly Cloudy
9:15 PM 55.4 °F 33.8 °F 44% 30.18 in 10.0 mi Calm Calm - N/A   Partly Cloudy
9:35 PM 55.4 °F 33.8 °F 44% 30.18 in 10.0 mi Calm Calm - N/A   Mostly Cloudy
9:55 PM 55.4 °F 33.8 °F 44% 30.18 in 10.0 mi Calm Calm - N/A   Overcast
10:15 PM 55.4 °F 35.6 °F 47% 30.19 in 10.0 mi Calm Calm - N/A   Overcast
10:35 PM 55.4 °F 35.6 °F 47% 30.19 in 10.0 mi Calm Calm - N/A   Overcast
10:55 PM 57.2 °F 35.6 °F 44% 30.19 in 10.0 mi Calm Calm - N/A   Overcast
11:15 PM 55.4 °F 33.8 °F 44% 30.19 in 10.0 mi Calm Calm - N/A   Overcast
11:35 PM 55.4 °F 33.8 °F 44% 30.18 in 10.0 mi Calm Calm - N/A   Overcast
11:55 PM 55.4 °F 35.6 °F 47% 30.18 in 10.0 mi Calm Calm - N/A   Overcast